Left ArrowRight Arrow

Hourly Observations for June 23, 2024

Temp ( °F °C ) Dew Point ( °F °C ) Humidity (%) Winds ( mph kmh ) Pressure ( in mb ) Visibility ( mi km ) Precip ( " mm )
12:53 am 00:53 Partly Cloudy 77 25 70 21.1 79 79 SSE 8 13 30.02 1017 10 16 0.00 0.00
1:23 am 01:23 Cloudy 77 25 70 21.1 79 79 SE 9 15 30.02 1016 10 16 0.00 0.00
1:41 am 01:41 Cloudy 77 25 71 21.7 82 82 SSE 10 17 30.02 1016 10 16 0.00 0.00
1:53 am 01:53 Cloudy 77 25 71 21.7 82 82 SSE 8 13 30.01 1016 10 16 0.00 0.00
2:53 am 02:53 Cloudy 76 24.4 70 21.1 82 82 Calm 30.00 1016 10 16 0.01 0.13
3:53 am 03:53 Cloudy 77 25 70 21.1 79 79 Calm 29.99 1016 10 16 0.00 0.00
4:53 am 04:53 Cloudy 77 25 70 21.1 79 79 E 5 7 29.98 1015 10 16 0.00 0.00
5:53 am 05:53 Mostly Cloudy 76 24.4 69 20.6 79 79 Calm 30.00 1016 10 16 0.00 0.00
6:53 am 06:53 Sunny 79 26.1 69 20.6 72 72 Calm 30.01 1016 10 16 0.00 0.00
7:53 am 07:53 Sunny 82 27.8 70 21.1 67 67 Calm 30.01 1016 10 16 0.00 0.00
8:53 am 08:53 Partly Cloudy 82 27.8 71 21.7 69 69 SSW 10 17 30.01 1016 10 16 0.00 0.00
9:53 am 09:53 Mostly Sunny 83 28.3 71 21.7 67 67 S 12 19 30.01 1016 10 16 0.00 0.00
10:53 am 10:53 Mostly Sunny 84 28.9 72 22.2 67 67 SSW 13 20 30.01 1016 10 16 0.00 0.00
11:53 am 11:53 Sunny 85 29.4 72 22.2 65 65 SSW 13 20 30.01 1016 10 16 0.00 0.00
12:53 pm 12:53 Mostly Sunny 84 28.9 73 22.8 70 70 SSW 13 20 30.00 1016 10 16 0.00 0.00
1:53 pm 13:53 Partly Cloudy 84 28.9 71 21.7 65 65 SW 12 19 30.00 1016 10 16 0.00 0.00
2:53 pm 14:53 Mostly Cloudy 83 28.3 71 21.7 67 67 SW 9 15 29.98 1015 10 16 0.00 0.00
3:53 pm 15:53 Cloudy with Light Rain 79 26.1 74 23.3 85 85 E 8 13 29.99 1016 7 11 0.01 0.25
5:03 pm 17:03 Cloudy with Light Rain 77 25 74 23.3 90 90 S 8 13 29.99 1015 9 14 0.01 0.13
5:53 pm 17:53 Mostly Cloudy with Light Rain 78 25.6 73 22.8 85 85 SE 7 11 29.99 1016 10 16 0.01 0.13
6:53 pm 18:53 Mostly Cloudy 78 25.6 73 22.8 85 85 SSE 7 11 29.99 1016 10 16 0.01 0.13
7:30 pm 19:30 Mostly Cloudy 78 25.6 72 22.2 82 82 Calm 30.01 1016 10 16 0.00 0.00
7:53 pm 19:53 Cloudy 78 25.6 67 19.4 69 69 NNE 7 11 30.01 1016 10 16 0.00 0.00
8:53 pm 20:53 Cloudy 78 25.6 69 20.6 74 74 Calm 30.02 1017 10 16 0.00 0.00
9:53 pm 21:53 Mostly Clear 78 25.6 70 21.1 76 76 S 6 9 30.03 1017 10 16 0.00 0.00
10:53 pm 22:53 Clear 76 24.4 70 21.1 82 82 E 7 11 30.03 1017 10 16 0.00 0.00
11:53 pm 23:53 Cloudy 78 25.6 68 20 71 71 Calm 30.03 1017 10 16 0.00 0.00

Powered by Vaisala Xweather